◎アテン型小惑星 (99942) Apophisの地球接近    [From JSGA Web News]

 2029年に地球接近が予報されている (99942) Apophis(アポシス)の2005年9月

4日の光学観測が報告された.次の軌道は,2004年3月15日から2005年9月4日ま

で2回の衝で行なわれた 951個の観測から決定されたもの.軌道改良には,2005年

1月29日と30日にアレシボで行なわれたレーダ観測が,使用されている(残差リス

トのR)が,2005年1月27日と8月7日のレーダ観測は,Time delayが公表されて

いないので,使われていない.



(99942) Apophis = 2004 MN4

Epoch 2005 Aug. 18.0 TT = JDT 2453600.5                 Nakano

M 359.74099              (2000.0)            P               Q

n   1.11247422     Peri.  126.37329     +0.87270027     +0.48766294

a   0.9224498      Node   204.46685     -0.46451462     +0.81407362

e   0.1910241      Incl.    3.33096     -0.15040084     +0.31538707

P   0.89           H   19.2           G   0.15           U   2



 上の軌道から,2050年までの地球(3)と月(10)への接近は,次の日付に起こる.

行末の括弧内の値は,2005年9月2日に公表されたIAUC 8593のもの.



Planet     P  Date/TT         Distance (AU)

2004 MN4   3  2013  1  9.5    0.096663

2004 MN4  10  2013  1  4.3    0.095484

2004 MN4   3  2029  4 13.9    0.000247 (0.000250)

2004 MN4  10  2029  4 14.6    0.000659

2004 MN4   3  2036  4  9.3    0.050367 (0.14)

2004 MN4  10  2036  4 10.5    0.050865



  アポシスの軌道は,Uncertainty (U) = 2と10年後の予報位置にまだ18"ほどの誤

差があり,地球への接近距離は,まだ,不確かであるが,この小惑星は,2029年4

月13.9日TTに,地心まで3万7000-Km,地表面までおよそ3万Kmに接近することにな

る.

 なお,この接近で,この小惑星の軌道は,下のとおり,アテン型からアポロ型に

変化する.



T/TT            q         e           P     Peri.    Node     Inc.     Epoch    

    a

2005  8 18.233  0.746240  0.191024   0.886  126.373  204.467    3.331  20050818 

    0.92245

2006  7  7.808  0.746059  0.191056   0.886  126.395  204.460    3.331  20060704 

    0.92226

2007  5 27.301  0.746055  0.191052   0.886  126.386  204.459    3.331  20070520 

    0.92225

2008  4 14.801  0.746060  0.191145   0.886  126.377  204.451    3.331  20080404 

    0.92237

2009  3  4.409  0.746055  0.191214   0.886  126.401  204.444    3.331  20090218 

    0.92244

2010  1 22.023  0.746042  0.191211   0.886  126.424  204.439    3.332  20100104 

    0.92242

2010 12 11.562  0.746040  0.191116   0.886  126.430  204.431    3.332  20101230 

    0.92231

2011 10 31.083  0.746065  0.191082   0.886  126.429  204.430    3.332  20111115 

    0.92230

2012  9 18.595  0.746095  0.191062   0.886  126.419  204.427    3.332  20120930 

    0.92231

2013  8  7.858  0.745915  0.191115   0.886  126.432  204.215    3.330  20130816 

    0.92215

2014  6 27.297  0.745814  0.191190   0.885  126.442  204.208    3.330  20140702 

    0.92211

2015  5 16.734  0.745796  0.191214   0.885  126.458  204.203    3.331  20150518 

    0.92212

2016  4  4.180  0.745776  0.191442   0.886  126.555  204.118    3.331  20160402 

    0.92235

2017  2 21.921  0.745917  0.191514   0.886  126.692  204.061    3.337  20170216 

    0.92261

2018  1 11.611  0.745943  0.191479   0.886  126.693  204.059    3.337  20180102 

    0.92260

2018 12  1.260  0.745926  0.191443   0.886  126.682  204.056    3.337  20181118 

    0.92254

2019 10 20.896  0.745904  0.191461   0.886  126.674  204.053    3.337  20191004 

    0.92253

2020  9  8.555  0.745928  0.191497   0.886  126.678  204.046    3.337  20200928 

    0.92260

2021  7 29.055  0.746066  0.191416   0.886  126.589  203.963    3.339  20210814 

    0.92268

2022  6 17.783  0.746051  0.191457   0.886  126.601  203.958    3.339  20220630 

    0.92271

2023  5  7.531  0.746089  0.191423   0.886  126.608  203.957    3.339  20230516 

    0.92272

2024  3 26.303  0.746076  0.191291   0.886  126.683  203.915    3.340  20240331 

    0.92255

2025  2 12.853  0.746088  0.191122   0.886  126.671  203.903    3.341  20250214 

    0.92237

2026  1  2.417  0.746053  0.191160   0.886  126.673  203.899    3.341  20251231 

    0.92237

2026 11 21.970  0.745999  0.191180   0.886  126.684  203.892    3.341  20261116 

    0.92233

2027 10 11.513  0.745994  0.191179   0.886  126.697  203.888    3.341  20271002 

    0.92232

2028  8 30.103  0.746139  0.191137   0.886  126.723  203.877    3.341  20280817 

    0.92245

2029  6 12.837  0.896612  0.190447   1.166   70.406  203.562    2.177  20290524 

    1.10754

2030  8 12.425  0.896541  0.190383   1.165   70.382  203.549    2.177  20300807 

    1.10736

2031 10 12.095  0.896505  0.190419   1.165   70.408  203.545    2.177  20311021 

    1.10737

2032 12 10.740  0.896496  0.190395   1.165   70.432  203.538    2.177  20321124 

    1.10732

2034  2  9.342  0.896570  0.190340   1.165   70.429  203.529    2.177  20340207 

    1.10734

2035  4 10.947  0.896569  0.190393   1.165   70.413  203.525    2.177  20350423 

    1.10741

2036  6  9.836  0.895734  0.190140   1.163   70.738  203.497    2.179  20360527 

    1.10604

2037  8  8.618  0.895709  0.190058   1.163   70.783  203.466    2.179  20370810 

    1.10589

2038 10  7.427  0.895795  0.189975   1.163   70.820  203.453    2.179  20381024 

    1.10589

2039 12  6.183  0.895835  0.189902   1.163   70.816  203.447    2.179  20391128 

    1.10584

2041  2  2.925  0.895839  0.189903   1.163   70.801  203.445    2.179  20410210 

    1.10584

2042  4  3.695  0.895812  0.189960   1.163   70.797  203.444    2.179  20420317 

    1.10589

2043  6  2.526  0.895652  0.189948   1.163   70.862  203.437    2.180  20430531 

    1.10567

2044  7 31.126  0.895668  0.189922   1.163   70.861  203.424    2.180  20440813 

    1.10566

2045  9 28.807  0.895751  0.189890   1.163   70.882  203.416    2.180  20450917 

    1.10572

2046 11 27.472  0.895721  0.189866   1.163   70.883  203.408    2.180  20461201 

    1.10565

2048  1 26.135  0.895654  0.189942   1.163   70.911  203.389    2.180  20480214 

    1.10567

2049  3 25.815  0.895626  0.189980   1.163   70.940  203.383    2.180  20490320 

    1.10568

2050  5 24.522  0.895637  0.189914   1.163   70.990  203.372    2.180  20500603 

    1.10561





 上の軌道からの残差は,次のとおり.なお,小惑星は,20等級であるために位置予

報は,省略する.ただし,2006年春には,18等級まで明るくなるだろう.



Residuals in seconds of arc 

040315 691  0.1+  0.0     041231 423  0.2+  0.2-    050115 A62  0.2-  0.0   

040315 691  1.1-  0.2-    041231 423  0.2+  0.4-    050115 A62  0.1-  0.3-  

040315 691  0.0   0.3-    041231 423  0.1+  0.2-    050115 A62  0.2-  0.1-  

040315 691  0.6+  0.1+    041231 423  0.2+  0.2+    050115 198  0.1-  0.2-  

040315 691  0.2-  0.0     041231 104  0.0   0.0     050115 A62  0.2-  0.1-  

040315 691  0.3+  0.3-    041231 104  0.4+  0.5+    050115 A62  0.3-  0.0   

040619 695  0.1-  0.3+    041231 104  0.7+  0.5+    050115 198  0.0   0.1-  

040619 695  0.1+  0.0     050101 H06  0.4-  0.4-    050115 198  0.1+  0.0   

040619 695  0.1-  0.3+    050101 H06  0.2-  0.4-    050115 198  0.2-  0.1+  

040620 695  0.0   0.4+    050101 H06  0.4-  0.5-    050115 201  0.1+  0.1-  

040620 695  0.1+  0.4+    050101 185  0.5-  0.7-    050115 201  0.2+  0.4-  

040620 695  0.3-  0.0     050101 185  0.6-  1.3-    050115 201  0.1+  0.3-  

041218 E12  0.1-  0.7+    050101 434  0.2+  0.7+    050115 204  0.1+  0.1-  

041218 E12  1.1+  0.2-    050101 434  0.7+  0.4-    050115 204  0.5+  0.1+  

041218 E12  0.1-  0.2-    050101 434  1.3-  1.6-    050115 204  0.2+  0.1+  

041218 E12  0.4-  0.4+    050101 434  0.9-  0.5-    050115 204  0.3+  0.1+  

041218 E12  0.1+  0.2-    050101 952  0.3-  0.3-    050116 844  0.6+  0.7+  

041218 E12  0.0   0.3-    050101 952  0.3+  0.3-    050116 844  0.4+  0.4+  

041218 E12  0.0   0.1-    050101 952  0.1-  0.2-    050116 844  0.3-  0.1+  

041218 E12  0.2+  0.3+    050101 A30  0.2+  0.0     050116 844  0.6+  0.1+  

041218 E12  0.6+  0.1+    050101 A30  0.0   0.2-    050116 G95  0.4-  0.7-  

041218 E12  0.2+  0.5+    050101 952  0.2-  0.3-    050118 H36  0.7-  0.9-  

041218 E12  0.6+  0.1-    050101 A30  0.1-  0.5-    050118 H36  0.0   0.2+  

041218 E12  0.1-  0.1-    050101 A30  0.0   0.8-    050118 696  0.4-  0.4-  

041219 854  0.6-  1.0-    050101 952  0.0   0.2-    050118 696  0.0   0.2-  

041219 854  1.4-  1.5+    050101 941  0.3+  0.0     050119 A53 (2.0+  1.0-) 

041219 854  0.6+  0.5+    050101 941  0.4+  0.1+    050119 A53  1.1-  1.7+  

041219 854  0.9-  0.6-    050101 941  0.2+  0.1+    050120 H36  0.3+  0.1+  

041219 854  0.2-  0.3-    050101 941  0.2+  0.3+    050120 H36  0.3-  0.7-  

041219 474  0.1+  0.1-    050102 H06  0.1+  0.2-    050121 844  1.0+  1.5+  

041219 474  0.0   0.1-    050102 H06  0.2+  0.3-    050121 844  0.2-  0.5+  

041219 474  0.2-  0.3-    050102 H06  0.4-  0.1-    050121 844  1.4+  0.3-  

041219 474  0.0   0.1-    050102 300  0.3+  0.2-    050121 844  1.5+  0.6-  

041220 673  0.9-  0.6-    050102 300  0.2+  0.0     050121 A48  0.3-  1.1+  

041220 673  0.6-  0.0     050102 300  0.1-  0.1-    050121 A48  0.5+  0.8+  

041220 673  0.7-  0.4-    050102 300  0.2+  0.2-    050121 A48 (3.1+  1.1-) 

041220 673  0.4-  0.0     050102 300  0.5+  0.1-    050122 A30  0.2+  0.2-  

041222 E12  0.3+  0.1+    050102 300  0.0   0.4+    050122 A30  0.2+  0.3-  

041222 E12  0.3+  0.1-    050102 952  0.3-  0.1+    050122 A30  0.1-  0.3-  

041222 E12  0.7-  0.3-    050102 952  0.3-  0.2-    050122 A30  0.1+  0.5-  

041222 E12  0.6+  0.1+    050102 952  0.3-  0.1+    050122 941  0.3+  0.3-  

041223 704 (2.8-  2.3+)   050102 952  0.6-  0.3-    050122 941  0.2+  0.1-  

041223 704  0.5-  0.9+    050102 952  0.8-  0.1-    050122 941  0.2+  0.1-  

041223 704 (2.5-  0.4+)   050102 589  0.5-  0.0     050122 941  0.2+  0.0   

041223 704  0.7-  0.6-    050102 589  1.3-  0.3+    050122 A53  0.0   0.5-  

041223 704  1.2-  1.5+    050102 J95  0.3+  0.1-    050122 A53  1.3-  1.6+  

041223 704  0.5-  0.2-    050102 J95  0.3+  0.5-    050122 A53  0.7+  1.0-  

041223 704  1.7-  0.7+    050102 J95  0.0   0.2-    050123 198  0.1-  0.2+  

041223 704  1.1-  0.2-    050102 589  0.6-  0.1+    050123 198  0.2-  0.0   

041223 E12  0.6+  0.2-    050102 589  0.0   0.2-    050123 198  0.3-  0.0   

041223 E12  0.5-  0.1+    050102 589  0.8-  0.4-    050123 198  0.4-  0.2-  

041223 E12  0.1+  0.2+    050103 185  0.3+  0.1+    050123 198  0.4-  0.4-  

